Starlink 30169

operational
NORAD ID: 57499 Int'l Des: 2023-113 Owner: SPXS Country: US Constellation: starlink
LEOCIRCULAR

About Starlink 30169

Description loading...

Live Position

Loading 3D Globe...

Upcoming Passes

Altitude History

Altitude vs Time

uPlot chart will show altitude changes over time

Two-Line Element Set

1 57499U 23113E 25312.28612514 .00000161 00000-0 26975-4 0 9997
2 57499 43.0122 304.6665 0000821 256.2214 103.8537 15.02537494125387
Epoch: Nov 8, 2025 • Age: 52 hours

Current Status

Altitude 564.3 km
Velocity 7.58 km/s
Sub-Earth Point -23.31°S, 72.75°W
Launch Date Aug 7, 2023
Age 2.2 years
Type internet

Technical Details

Classification Payload
Mass 730.00 kg
Dry Mass 700.00 kg
Total Mass 730.00 kg
Length 0.30 m
Diameter 4.10 m
Span 29.00 m
Shape Box + pan
Manufacturer SPXS
Bus Type Starlink V2M
Phase Status In Orbit
Owner/State SPXS/US

Large Constellations

Loading constellations...